Home > Weather > Jersey City > Past weeks

Flag for U.S.A. Weather for the Past 2 Weeks in Jersey City, New Jersey, U.S.A.

Now
33 °F

Light snow. Mostly cloudy.


Feels Like: 29 °F
Forecast: 31 / 39 °F
Wind: 5 mph from Southwest

Location: Newark International Airport

Current Time: Feb 9, 2016 at 10:03:01 PM

Latest Report: Feb 9, 2016 at 8:51 PM


Visibility: 7 mi

Pressure: 29.62 "Hg

Humidity: 78%

Dew point: 27 °F

Location of Jersey CityLocation

Historic Weather in Jersey City — Graph

°F

Jersey City Temperature Yesterday

Maximum temperature yesterday: 39 °F (at 12:51 AM)
Minimum temperature yesterday: 30 °F (at 9:51 PM)
Average temperature yesterday: 35 °F

High & Low Weather Summary for the Past Weeks

 TemperatureHumidityPressure
High58 °F (Feb 3, 2:51 PM)100% (Feb 3, 11:51 PM)30.44 "Hg (Feb 3, 11:51 PM)
Low26 °F (Jan 26, 3:51 AM)37% (Jan 27, 3:51 PM)29.47 "Hg (Jan 29, 12:51 PM)
Average39 °F66%29.99 "Hg
* Reported Jan 25 7:51 PM — Feb 9 7:51 PM, Jersey City, Weather by CustomWeather, © 2016

Note: Actual official high and low records may vary slightly from our data, if they occured in-between our weather recording intervals... More about our weather records

Advertising

Jersey City Weather History for the Previous 24 Hours

 ConditionsComfort  
Time TempWeatherWind HumidityBarometerVisibility
7:51 PM
Tue, Feb 9
34 °FLight snow. Mostly cloudy.3 mph73%29.62 "Hg7 mi
6:51 PM35 °FMostly cloudy.6 mph70%29.61 "Hg10 mi
5:51 PM34 °FMostly cloudy.5 mph73%29.60 "Hg10 mi
4:51 PM35 °FBroken clouds.3 mph64%29.59 "Hg10 mi
3:51 PM36 °FCloudy.No wind64%29.57 "Hg10 mi
2:51 PM35 °FMore clouds than sun.No wind70%29.57 "Hg10 mi
1:51 PM33 °FMostly cloudy.3 mph72%29.58 "Hg10 mi
12:51 PM33 °FOvercast.3 mph70%29.59 "Hg10 mi
11:51 AM32 °FOvercast.12 mph75%29.60 "Hg10 mi
10:51 AM31 °FOvercast.14 mph79%29.62 "Hg10 mi
9:51 AM29 °FLight snow. Overcast.14 mph82%29.65 "Hg9 mi
8:51 AM30 °FLight snow. Mostly cloudy.13 mph82%29.67 "Hg8 mi
7:51 AM30 °FMostly cloudy.7 mph79%29.68 "Hg10 mi
6:51 AM29 °FLow clouds.9 mph85%29.68 "Hg10 mi
5:51 AM28 °FLow clouds.9 mph81%29.66 "Hg10 mi
4:51 AM29 °FLight snow. Mostly cloudy.8 mph79%29.66 "Hg9 mi
3:51 AM29 °FLight snow. Mostly cloudy.5 mph79%29.69 "Hg9 mi
2:51 AM29 °FLight snow. Mostly cloudy.6 mph82%29.72 "Hg10 mi
1:51 AM29 °FLight snow. Mostly cloudy.6 mph82%29.73 "Hg2 mi
12:51 AM30 °FLight snow. Low clouds.7 mph79%29.74 "Hg10 mi
11:51 PM
Mon, Feb 8
30 °FLight freezing rain. Mostly cloudy.6 mph82%29.76 "Hg9 mi
10:51 PM30 °FLight snow. Mostly cloudy.7 mph82%29.77 "Hg4 mi
Weather by CustomWeather, © 2016

See weather overviewHow to use our weather pages